TimeEDT,TemperatureF,Dew PointF,Humidity,Sea Level PressureIn,VisibilityMPH,Wind Direction,Wind SpeedMPH,Gust SpeedMPH,PrecipitationIn,Events,Conditions,WindDirDegrees,DateUTC
12:53 AM,57.0,55.0,93,30.06,6.0,Calm,Calm,-,N/A,,Clear,0,2013-10-02 04:53:00
1:53 AM,55.9,54.0,93,30.06,8.0,Calm,Calm,-,N/A,,Clear,0,2013-10-02 05:53:00
2:53 AM,55.0,53.1,93,30.07,6.0,ESE,4.6,-,N/A,,Clear,120,2013-10-02 06:53:00
3:53 AM,55.9,54.0,93,30.06,6.0,ESE,3.5,-,N/A,,Clear,110,2013-10-02 07:53:00
4:53 AM,55.9,54.0,93,30.07,5.0,SE,3.5,-,N/A,,Mostly Cloudy,130,2013-10-02 08:53:00
5:53 AM,55.0,53.1,93,30.08,5.0,Calm,Calm,-,N/A,,Clear,0,2013-10-02 09:53:00
6:27 AM,55.4,53.6,94,30.09,6.0,SE,3.5,-,N/A,,Mostly Cloudy,130,2013-10-02 10:27:00
6:53 AM,55.0,53.1,93,30.09,7.0,SE,3.5,-,N/A,,Scattered Clouds,130,2013-10-02 10:53:00
7:53 AM,55.0,53.1,93,30.10,4.0,Calm,Calm,-,N/A,,Clear,0,2013-10-02 11:53:00
8:53 AM,60.1,57.0,90,30.11,5.0,Calm,Calm,-,N/A,,Partly Cloudy,0,2013-10-02 12:53:00
9:53 AM,66.9,60.1,79,30.12,10.0,South,3.5,-,N/A,,Clear,170,2013-10-02 13:53:00
10:53 AM,72.0,62.1,71,30.12,10.0,Variable,5.8,-,N/A,,Clear,0,2013-10-02 14:53:00
11:48 AM,75.2,62.6,65,30.12,10.0,Variable,3.5,-,N/A,,Mostly Cloudy,0,2013-10-02 15:48:00
11:53 AM,75.9,63.0,64,30.11,10.0,NW,4.6,-,N/A,,Mostly Cloudy,320,2013-10-02 15:53:00
12:48 PM,77.0,62.6,61,30.11,10.0,Variable,5.8,-,N/A,,Mostly Cloudy,0,2013-10-02 16:48:00
12:53 PM,77.0,63.0,62,30.10,10.0,Variable,6.9,-,N/A,,Scattered Clouds,0,2013-10-02 16:53:00
1:53 PM,79.0,61.0,54,30.09,10.0,West,6.9,-,N/A,,Clear,260,2013-10-02 17:53:00
2:53 PM,80.1,61.0,52,30.07,10.0,Calm,Calm,-,N/A,,Clear,0,2013-10-02 18:53:00
3:53 PM,79.0,61.0,54,30.06,10.0,West,4.6,-,N/A,,Scattered Clouds,260,2013-10-02 19:53:00
4:53 PM,82.0,59.0,45,30.05,10.0,Variable,6.9,-,N/A,,Scattered Clouds,0,2013-10-02 20:53:00
5:53 PM,80.1,59.0,48,30.06,10.0,West,4.6,-,N/A,,Scattered Clouds,260,2013-10-02 21:53:00
6:53 PM,73.0,62.1,68,30.06,10.0,Calm,Calm,-,N/A,,Clear,0,2013-10-02 22:53:00
7:53 PM,68.0,62.1,81,30.07,10.0,Calm,Calm,-,N/A,,Clear,0,2013-10-02 23:53:00
8:53 PM,64.9,60.1,84,30.08,10.0,Calm,Calm,-,N/A,,Clear,0,2013-10-03 00:53:00
9:53 PM,64.0,61.0,90,30.08,9.0,Calm,Calm,-,N/A,,Clear,0,2013-10-03 01:53:00
10:53 PM,61.0,59.0,93,30.08,8.0,Calm,Calm,-,N/A,,Clear,0,2013-10-03 02:53:00
11:53 PM,60.1,57.9,93,30.09,5.0,Calm,Calm,-,N/A,,Clear,0,2013-10-03 03:53:00